x

Fairport, Mi (fptm4) Weather Station

2:40am - Fri 28th Nov 2014 All times are CST. -6 hours from GMT.

  • Wind
    6mph, 8mph gusts
  • Air Temp 13°f
  • Sea Pressure 1026.1mb
  • Fairport, Mi
  • Fairport, Mi

More Historic Weather Station data

Upgrade to MSW Pro to gain access to the past 30 days of data for over 8000 Wavebouys and Weather Stations around the globe.

Join Pro

Comparision Forecast

View Surf forecast
   
Fri 11/28 2:40am 6 8 mph 1026.1mb 13f
2:30am 5 8 mph 1026.1mb 12f
2:20am 5 8 mph 1026.1mb 12f
2:10am 6 8 mph 1026.4mb 12f
2:00am 5 8 mph 1026.4mb 12f
1:40am 5 8 mph 1026.1mb 11f
1:30am 5 8 mph 1026.1mb 12f
1:20am 5 7 mph 1026.1mb 12f
1:10am 6 8 mph 1026.4mb 12f
1:00am 6 8 mph 1026.4mb 12f
12:40am 5 9 mph 1026.4mb 12f
12:30am 6 9 mph 1026.4mb 12f
12:20am 6 8 mph 1026.4mb 11f
12:10am 5 7 mph 1026.4mb 11f
12:00am 5 8 mph 1026.4mb 11f
Thu 11/27 11:40pm 5 8 mph 1026.4mb 11f
11:30pm 6 8 mph 1026.4mb 11f
11:20pm 6 9 mph 1026.4mb 11f
11:10pm 6 10 mph 1026.4mb 12f
11:00pm 6 11 mph 1026.8mb 12f
10:40pm 6 10 mph 1026.8mb 12f
10:30pm 6 8 mph 1026.8mb 12f
10:20pm 5 8 mph 1026.8mb 13f
10:10pm 5 10 mph 1026.8mb 13f
10:00pm 5 9 mph 1026.8mb 13f
9:40pm 8 11 mph 1026.8mb 13f
9:30pm 9 16 mph 1026.8mb 14f
9:20pm 10 15 mph 1027.1mb 14f
9:10pm 7 15 mph 1027.1mb 14f
9:00pm 13 17 mph 1027.4mb 14f
8:40pm 9 15 mph 1027.4mb 14f
8:30pm 10 15 mph 1027.4mb 14f
8:20pm 8 15 mph 1027.4mb 14f
8:10pm 13 17 mph 1027.4mb 15f
8:00pm 11 18 mph 1027.4mb 14f
7:40pm 11 21 mph 1027.1mb 15f
7:30pm 14 18 mph 1027.4mb 15f
7:20pm 11 17 mph 1027.1mb 15f
7:10pm 14 20 mph 1027.1mb 15f
7:00pm 13 18 mph 1027.1mb 14f
5:40pm 11 16 mph 1027.1mb 15f
5:30pm 9 20 mph 1027.1mb 15f
5:20pm 10 18 mph 1027.4mb 15f
5:10pm 8 16 mph 1027.4mb 15f
5:00pm 8 16 mph 1027.1mb 15f
4:40pm 8 13 mph 1027.1mb 15f
4:30pm 9 16 mph 1027.1mb 15f
4:20pm 11 16 mph 1026.8mb 15f
4:10pm 10 16 mph 1026.8mb 15f
4:00pm 13 21 mph 1026.8mb 16f
3:40pm 10 15 mph 1026.4mb 17f
3:30pm 10 18 mph 1026.4mb 17f
3:20pm 11 21 mph 1026.4mb 17f
3:10pm 13 23 mph 1026.4mb 17f
3:00pm 10 17 mph 1026.4mb 18f
2:40pm 9 17 mph 1026.1mb 18f
2:30pm 14 21 mph 1026.1mb 18f
2:20pm 10 18 mph 1025.7mb 18f
2:10pm 8 18 mph 1025.7mb 19f
2:00pm 14 20 mph 1025.7mb 19f
1:40pm 11 17 mph 1025.7mb 18f
1:30pm 13 18 mph 1025.7mb 18f
1:20pm 11 20 mph 1025.4mb 18f
1:10pm 9 17 mph 1025.4mb 18f
1:00pm 14 21 mph 1025.4mb 19f
12:40pm 13 16 mph 1025.4mb 19f
12:30pm 10 17 mph 1025.4mb 19f
12:20pm 11 21 mph 1025.4mb 18f
12:10pm 11 21 mph 1025.4mb 18f
12:00pm 10 24 mph 1025.1mb 18f
11:40am 15 21 mph 1025.4mb 18f
11:30am 13 20 mph 1025.4mb 18f
11:20am 13 20 mph 1025.7mb 18f
11:10am 14 21 mph 1025.7mb 17f
11:00am 10 18 mph 1025.7mb 18f
10:40am 11 20 mph 1025.4mb 16f
10:30am 10 18 mph 1025.7mb 17f
10:20am 10 20 mph 1025.7mb 16f
10:10am 14 22 mph 1025.7mb 16f
10:00am 14 20 mph 1025.7mb 16f
9:40am 11 20 mph 1025.4mb 16f
9:30am 9 20 mph 1025.7mb 16f
9:20am 14 21 mph 1025.4mb 15f
9:10am 13 21 mph 1025.4mb 15f
9:00am 10 20 mph 1025.4mb 15f
8:40am 13 20 mph 1025.1mb 15f
8:30am 11 21 mph 1024.7mb 15f
8:20am 14 21 mph 1024.7mb 15f
8:10am 13 20 mph 1024.4mb 15f
8:00am 14 25 mph 1024mb 15f
7:40am 13 21 mph 1024mb 15f
7:30am 10 23 mph 1024mb 15f
7:20am 11 23 mph 1024mb 15f
7:10am 13 22 mph 1024mb 15f
7:00am 14 24 mph 1024mb 16f
6:40am 13 23 mph 1024mb 17f
6:30am 14 30 mph 1023.7mb 17f
6:20am 13 22 mph 1023.4mb 18f
6:10am 16 26 mph 1023.4mb 18f
6:00am 11 22 mph 1023.4mb 18f
5:40am 13 20 mph 1023mb 19f
5:30am 13 22 mph 1023.4mb 20f
5:20am 11 18 mph 1023mb 21f
5:10am 11 22 mph 1023mb 21f
5:00am 13 17 mph 1023mb 21f
4:40am 13 17 mph 1023mb 21f
4:30am 11 18 mph 1022.7mb 22f
4:20am 15 23 mph 1022.7mb 22f
4:10am 9 17 mph 1022.7mb 22f
4:00am 9 18 mph 1022.4mb 22f
3:50am 13 23 mph 1022.7mb 22f
3:40am 9 20 mph 1022.4mb 22f
3:30am 11 17 mph 1022.4mb 23f
3:20am 8 17 mph 1022.4mb 23f
3:10am 11 21 mph 1022.4mb 23f
3:00am 11 20 mph 1022mb 23f
2:50am 10 21 mph 1022.4mb 23f
2:40am 9 24 mph 1022mb 24f
2:30am 11 24 mph 1022mb 24f
2:20am 13 20 mph 1022mb 24f
2:10am 13 23 mph 1022mb 25f
2:00am 8 17 mph 1022mb 25f
1:50am 9 17 mph 1022mb 25f
1:40am 13 20 mph 1021.7mb 25f
1:30am 10 18 mph 1021.7mb 25f
1:20am 9 17 mph 1021.7mb 25f
1:10am 9 18 mph 1021.7mb 25f
1:00am 7 16 mph 1021.7mb 25f
12:50am 6 17 mph 1021.7mb 25f
12:40am 8 16 mph 1021.3mb 25f
12:30am 9 14 mph 1021.3mb 25f
12:20am 7 9 mph 1021.3mb 25f
12:10am 6 10 mph 1021.3mb 25f
12:00am 6 11 mph 1021.3mb 25f
Wed 11/26 11:50pm 6 8 mph 1021.3mb 25f
11:40pm 5 7 mph 1021mb 24f
11:30pm 5 6 mph 1021mb 24f
11:20pm 5 8 mph 1021mb 24f
11:10pm 6 10 mph 1021mb 24f
11:00pm 7 10 mph 1021mb 24f
10:50pm 5 6 mph 1021mb 24f
10:40pm 3 6 mph 1020.7mb 24f
10:30pm 3 6 mph 1020.7mb 24f
10:20pm 5 7 mph 1020.7mb 24f
10:10pm 5 8 mph 1020.7mb 24f
10:00pm 5 8 mph 1020.7mb 24f
9:50pm 5 7 mph 1020.7mb 24f
9:40pm 3 6 mph 1020.7mb 24f
9:30pm 3 6 mph 1020.7mb 24f
9:20pm 3 5 mph 1020.7mb 24f
9:10pm 3 5 mph 1020.7mb 23f
9:00pm 3 5 mph 1020.7mb 24f
8:50pm 3 6 mph 1020.7mb 24f
8:40pm 5 9 mph 1020.7mb 24f
8:30pm 6 8 mph 1020.7mb 24f
8:20pm 6 10 mph 1020.7mb 24f
8:10pm 6 10 mph 1020.7mb 24f
8:00pm 7 9 mph 1020.7mb 24f
7:50pm 7 8 mph 1020.7mb 24f
7:40pm 6 7 mph 1020.7mb 24f
7:30pm 3 7 mph 1020.7mb 24f
7:20pm 5 7 mph 1021mb 24f
7:10pm 6 8 mph 1021mb 24f
7:00pm 5 7 mph 1021mb 23f
6:50pm 5 7 mph 1021mb 23f
6:40pm 5 7 mph 1021mb 23f
6:30pm 6
mph
1021mb 23f
6:20pm 5 6 mph 1021mb 24f
6:10pm 5 7 mph 1021mb 24f
6:00pm 3 6 mph 1021mb 23f
5:50pm 2 6 mph 1021.3mb 24f
5:40pm 5 6 mph 1021.3mb 23f
5:30pm 2 3 mph 1021.3mb 24f
5:20pm 2 3 mph 1021.3mb 24f
5:10pm 2 6 mph 1021.3mb 25f
5:00pm 5 7 mph 1021.7mb 25f
4:50pm 6 8 mph 1021.7mb 26f
4:40pm 7 10 mph 1021.3mb 26f
4:30pm 6 8 mph 1021.3mb 26f
4:20pm 6 9 mph 1021.3mb 26f
4:10pm 8 9 mph 1021.3mb 26f
4:00pm 6 10 mph 1021.3mb 26f
3:50pm 6 9 mph 1021.3mb 26f
3:40pm 7 9 mph 1021.3mb 26f
3:30pm 6 8 mph 1021mb 26f
3:20pm 6 7 mph 1021mb 26f
3:10pm 5 8 mph 1021mb 26f
3:00pm 3 7 mph 1021mb 26f
2:50pm 5 7 mph 1021mb 26f
2:40pm 3 7 mph 1021mb 26f
2:30pm 3 6 mph 1020.7mb 27f
2:20pm 5 7 mph 1020.7mb 26f
2:10pm 2 6 mph 1020.7mb 26f
2:00pm 3 5 mph 1020.7mb 28f
1:50pm  -  1 mph 1021mb 29f
1:40pm  -  5 mph 1021mb 28f
1:30pm 3 6 mph 1021mb 26f
1:20pm 6 8 mph 1021mb 25f
1:10pm 3 6 mph 1021mb 26f
1:00pm 3 7 mph 1021mb 26f
12:50pm 3 7 mph 1021.3mb 25f
12:40pm 6 9 mph 1021mb 25f
12:30pm 6 8 mph 1021mb 25f
12:20pm 3 9 mph 1021mb 25f
12:10pm 8 10 mph 1021mb 24f
12:00pm 8 13 mph 1021.3mb 25f
11:50am 8 10 mph 1021.3mb 24f
11:40am 7 10 mph 1021.3mb 24f
11:30am 8 10 mph 1021.3mb 24f
11:20am 9 11 mph 1021.3mb 25f
11:10am 6 11 mph 1021.7mb 24f
11:00am 9 11 mph 1021.7mb 24f
10:50am 9 11 mph 1022mb 24f
10:40am 9 11 mph 1021.7mb 24f
10:30am 9 10 mph 1021.7mb 24f
10:20am 7 9 mph 1022mb 24f
10:10am 8 9 mph 1021.7mb 25f
10:00am 8 11 mph 1022mb 24f
9:50am 5 6 mph 1022mb 25f
9:40am 3 7 mph 1022mb 25f
9:30am 5 7 mph 1021.7mb 24f
9:20am 3 6 mph 1021.7mb 24f
9:10am 3 6 mph 1021.7mb 23f
9:00am 6 8 mph 1021.7mb 23f
8:50am 5 8 mph 1021.7mb 23f
8:40am 3 6 mph 1021.7mb 22f
8:30am 3 6 mph 1021.7mb 22f
8:20am 2 5 mph 1021.7mb 22f
8:10am 3 5 mph 1021.3mb 22f
8:00am 3 6 mph 1021.3mb 21f
7:50am 3 6 mph 1021.3mb 21f
7:40am 3 6 mph 1021.3mb 21f
7:30am 5 7 mph 1021.3mb 21f
7:20am 3 6 mph 1021.3mb 21f
7:10am 3 6 mph 1021.3mb 22f
7:00am 3 5 mph 1021.3mb 22f
6:50am 3 6 mph 1021.3mb 22f
6:40am 2 3 mph 1021mb 23f
6:30am 2 6 mph 1021mb 23f
6:20am 3 7 mph 1021mb 23f
6:10am 3 6 mph 1020.7mb 23f
6:00am 3 7 mph 1020.7mb 23f
5:50am 5 8 mph 1021mb 23f
5:40am 3 7 mph 1020.7mb 23f
5:30am 5 7 mph 1021mb 23f
5:20am 3 9 mph 1021mb 23f
5:10am 6 10 mph 1021mb 24f
5:00am 7 10 mph 1020.7mb 26f
4:50am 7 8 mph 1021mb 26f
4:40am 6 8 mph 1021mb 26f
4:30am 7 8 mph 1021mb 25f
4:20am  -  3 mph 1021mb 24f
4:10am  -  2 mph 1021mb 24f
4:00am 2 3 mph 1021.3mb 24f
3:50am 3
mph
1021.3mb 24f
3:40am  -  2 mph 1021mb 24f
3:30am 1 5 mph 1021.3mb 25f
3:20am 5 7 mph 1021.3mb 25f
3:10am 5 6 mph 1021.3mb 25f
3:00am 5
mph
1021.3mb 25f
2:50am 1 5 mph 1021.3mb 24f
2:40am 5
mph
1021.3mb 24f
2:30am 2 3 mph 1021.3mb 23f
2:20am 3
mph
1021.7mb 23f
2:10am 2
mph
1021.7mb 23f
2:00am 2 3 mph 1021.7mb 23f
1:50am 2
mph
1022mb 23f
1:40am 1 3 mph 1022mb 23f
1:30am 1 3 mph 1022mb 24f
1:20am  -  2 mph 1021.7mb 24f
1:10am 1 3 mph 1021.7mb 24f
1:00am 2 5 mph 1021.3mb 24f
12:50am 3 6 mph 1021.3mb 24f
12:40am 2 5 mph 1021.3mb 24f
12:30am 3 5 mph 1021.3mb 24f
12:20am 3 5 mph 1021.3mb 24f
12:10am 2 3 mph 1021mb 24f
12:00am 2 5 mph 1021mb 24f
Tue 11/25 11:50pm 3 6 mph 1021.3mb 24f
11:40pm 5 6 mph 1021mb 24f
11:30pm 5 6 mph 1021mb 24f
11:20pm 5 6 mph 1021mb 24f
11:10pm 5 7 mph 1020.7mb 24f
11:00pm 3 6 mph 1020.7mb 24f
10:50pm 5 6 mph 1020.7mb 24f
10:40pm 2 5 mph 1020.7mb 24f
10:30pm 5 6 mph 1020.7mb 24f
10:20pm 3 5 mph 1020.7mb 24f
10:10pm 5
mph
1020.3mb 24f
10:00pm 5 6 mph 1020.3mb 23f
9:50pm 3
mph
1020.3mb 24f
9:40pm 3 5 mph 1020mb 24f
9:30pm 3 5 mph 1020mb 24f
9:20pm 5 6 mph 1020mb 24f
9:10pm 6
mph
1019.6mb 24f
9:00pm 2 5 mph 1019.6mb 24f
8:50pm 3 7 mph 1019.6mb 24f
8:40pm 3 6 mph 1019.3mb 24f
8:30pm 5 7 mph 1019mb 24f
8:20pm 3 6 mph 1019mb 24f
8:10pm 3 7 mph 1019.3mb 26f
8:00pm 5 7 mph 1019.3mb 27f
7:50pm 6 9 mph 1019.3mb 27f
7:40pm 8 10 mph 1019.3mb 26f
7:30pm 6 9 mph 1019mb 26f
7:20pm 7 8 mph 1019mb 25f
7:10pm 2 5 mph 1019mb 23f
7:00pm 3 5 mph 1019mb 23f
6:50pm 2 5 mph 1019mb 23f
6:40pm 3 5 mph 1018.6mb 24f
6:30pm 3 6 mph 1018.6mb 24f
6:20pm 3 6 mph 1018.6mb 24f
6:10pm 3 5 mph 1018.6mb 24f
6:00pm 5 7 mph 1018.3mb 24f
5:50pm 3 5 mph 1018.3mb 24f
5:40pm 3 6 mph 1018.3mb 24f
5:30pm 3 5 mph 1018.3mb 24f
5:20pm 5 7 mph 1018.3mb 24f
5:10pm 3 5 mph 1018.3mb 24f
5:00pm 3 5 mph 1017.9mb 24f
4:50pm 2 3 mph 1017.9mb 25f
4:40pm 2 7 mph 1017.6mb 25f
4:30pm 3 8 mph 1017.6mb 25f
4:20pm 5 7 mph 1017.6mb 26f
4:10pm 8 11 mph 1017.3mb 26f
4:00pm 9 11 mph 1017.3mb 26f
3:50pm 7 13 mph 1017.3mb 26f
3:40pm 9 11 mph 1016.9mb 26f
3:30pm 7 11 mph 1016.9mb 26f
3:20pm 6 10 mph 1016.6mb 26f
3:10pm 7 13 mph 1016.6mb 26f
3:00pm 8 11 mph 1016.3mb 26f
2:50pm 8 14 mph 1016.3mb 26f
2:40pm 7 14 mph 1015.9mb 26f
2:30pm 9 14 mph 1015.9mb 26f
2:20pm 9 16 mph 1015.9mb 27f
2:10pm 10 16 mph 1015.6mb 26f
2:00pm 13 17 mph 1015.2mb 27f
1:50pm 15 18 mph 1015.2mb 27f
1:40pm 18 22 mph 1014.9mb 27f
1:30pm 15 20 mph 1014.9mb 27f
1:20pm 16 20 mph 1014.9mb 27f
1:10pm 15 18 mph 1014.6mb 28f
1:00pm 17 21 mph 1014.6mb 28f
12:50pm 16 21 mph 1014.6mb 28f
12:40pm 13 22 mph 1014.2mb 28f
12:30pm 18 22 mph 1013.9mb 28f
12:20pm 16 21 mph 1013.9mb 28f
12:10pm 17 22 mph 1013.9mb 27f
12:00pm 17 22 mph 1013.5mb 28f
11:50am 21 22 mph 1013.9mb 28f
11:40am 16 23 mph 1013.5mb 27f
11:30am 18 23 mph 1013.5mb 28f
11:20am 16 23 mph 1013.2mb 28f
11:10am 18 23 mph 1013.2mb 27f
11:00am 16 23 mph 1013.2mb 27f
10:50am 22 26 mph 1013.2mb 27f
10:40am 21 24 mph 1012.9mb 27f
10:30am 17 26 mph 1012.9mb 27f
10:20am 18 29 mph 1012.5mb 27f
10:10am 17 29 mph 1012.5mb 26f
10:00am 22 29 mph 1012.2mb 26f
9:50am 17 28 mph 1012.2mb 26f
9:40am 21 26 mph 1011.9mb 26f
9:30am 17 29 mph 1011.5mb 26f
9:20am 22
mph
1011.5mb 26f
9:10am 17 26 mph 1011.2mb 26f
9:00am 24 30 mph 1011.2mb 26f
8:50am 18 28 mph 1011.2mb 26f
8:40am 18 26 mph 1010.8mb 26f
8:30am 17 26 mph 1010.8mb 25f
8:20am 22 26 mph 1010.5mb 26f
8:10am 20 26 mph 1010.2mb 25f
8:01am 17
mph
1010.2mb 25f
8:00am 17 26 mph 1010.2mb 25f
7:50am 18 30 mph 1010.2mb 25f
7:40am 20 25 mph 1009.5mb 26f
7:30am 23 29 mph 1009.1mb 26f
7:20am 20 29 mph 1009.1mb 26f
7:15am 21 29 mph 1009.1mb 26f
7:10am 18 29 mph 1009.1mb 26f
7:00am 24 26 mph 1008.8mb 26f
6:50am 17 25 mph 1008.8mb 26f
6:40am 20 29 mph 1008.5mb 26f
6:30am 22 26 mph 1008.1mb 26f
6:20am 18 28 mph 1007.8mb 26f
6:10am 22 29 mph 1007.5mb 26f
6:09am 21 29 mph 1007.5mb 26f
6:00am 21 28 mph 1007.5mb 26f
5:50am 21 30 mph 1007.1mb 26f
5:40am 24 30 mph 1006.8mb 26f
5:30am 23 29 mph 1006.4mb 27f
5:20am 22 29 mph 1006.4mb 27f
5:10am 21 29 mph 1006.4mb 27f
5:00am 24 29 mph 1006.4mb 27f
4:50am 22 30 mph 1006.1mb 27f
4:40am 22 29 mph 1005.8mb 27f
4:30am 22 30 mph 1005.8mb 27f
4:20am 23 30 mph 1005.8mb 27f
4:10am 24 29 mph 1005.1mb 27f
4:00am 25 29 mph 1005.1mb 28f
3:50am 26 29 mph 1005.1mb 27f
3:48am 26 29 mph 1004.7mb 27f
3:40am 25 28 mph 1004.7mb 28f
3:30am 24 29 mph 1004.7mb 28f
3:20am 25 28 mph 1004.7mb 28f
3:10am 22 25 mph 1004.4mb 28f
3:00am 11 21 mph 1004.7mb 27f
2:50am 13 18 mph 1004.4mb 27f
2:40am 16 23 mph 1004.1mb 27f
2:30am 17 24 mph 1003.7mb 27f
2:20am 16 22 mph 1003.7mb 27f
2:10am 16 22 mph 1003.4mb 28f
2:00am 11 24 mph 1003.4mb 27f
1:50am 13 23 mph 1003.4mb 27f
1:40am 15 24 mph 1002.7mb 28f
1:30am 14 21 mph 1002.7mb 28f
1:20am 16 21 mph 1002.4mb 28f
1:10am 17 23 mph 1002mb 28f
1:00am 17 23 mph 1002mb 28f
12:50am 18 21 mph 1002mb 28f
12:40am 16 21 mph 1001.7mb 28f
12:30am 14 21 mph 1001.4mb 28f
12:20am 15 21 mph 1001.4mb 28f
12:10am 13 21 mph 1001mb 28f
12:00am 17 23 mph 1000.7mb 28f
Mon 11/24 11:50pm 14 18 mph 1000.7mb 28f
11:40pm 11 21 mph 1000.3mb 28f
11:30pm 13 21 mph 1000mb 28f
11:20pm 13 16 mph 1000mb 28f
11:10pm 7 16 mph 1000mb 28f
11:00pm 10 23 mph 999.7mb 28f
10:50pm 15 22 mph 999.3mb 28f
10:40pm 16 22 mph 999.3mb 28f
10:30pm 15 23 mph 999mb 28f
10:20pm 16 24 mph 998.3mb 28f
10:10pm 17 23 mph 998.3mb 28f
10:00pm 17 23 mph 998.3mb 29f
9:50pm 20 23 mph 998.3mb 29f
9:40pm 15 23 mph 998mb 29f
9:30pm 18 22 mph 997.6mb 29f
9:20pm 14 23 mph 997.3mb 29f
9:10pm 18 25 mph 997.3mb 30f
9:00pm 21 24 mph 997mb 29f
8:50pm 16 25 mph 997mb 29f
8:40pm 20 25 mph 996.6mb 29f
8:30pm 21 25 mph 996.6mb 30f
8:20pm 21 26 mph 995.9mb 30f
8:10pm 22 24 mph 995.9mb 30f
8:00pm 20 24 mph 995.9mb 30f
7:50pm 15 23 mph 995.6mb 29f
7:40pm 22 24 mph 995.3mb 30f
7:30pm 20 23 mph 995.3mb 30f
7:20pm 16 24 mph 994.9mb 30f
7:10pm 21 24 mph 994.6mb 30f
7:00pm 22 24 mph 994.6mb 30f
6:50pm 21 23 mph 994.6mb 30f
6:40pm 20 22 mph 993.9mb 31f
6:30pm 13 20 mph 993.9mb 30f
6:20pm 15 18 mph 993.6mb 30f
6:10pm 15 17 mph 993.2mb 30f
6:00pm 11 16 mph 992.9mb 30f
5:50pm 14 16 mph 992.6mb 30f
5:40pm 10 15 mph 992.2mb 30f
5:30pm 9 22 mph 991.5mb 31f
5:20pm 11 17 mph 991.2mb 31f
5:10pm 13 17 mph 990.9mb 31f
5:00pm 10 18 mph 990.5mb 31f
4:50pm 11 25 mph 990.2mb 32f
4:40pm 10 22 mph 989.8mb 32f
4:30pm 14 24 mph 989.5mb 32f
4:20pm 13 21 mph 989.5mb 32f
4:10pm 15 25 mph 989.2mb 33f
4:00pm 10 22 mph 988.8mb 33f
3:50pm 10 22 mph 988.8mb 33f
3:40pm 11 20 mph 988.1mb 33f
3:30pm 17 29 mph 988.1mb 33f
3:20pm 17
mph
987.8mb 33f
3:10pm 14 28 mph 987.5mb 33f
3:00pm 20 28 mph 986.8mb 34f
2:50pm 17 26 mph 987.1mb 34f
2:40pm 15 29 mph 986.8mb 34f
2:30pm 17 26 mph 986.5mb 34f
2:20pm 13 26 mph 986.1mb 34f
2:10pm 14 26 mph 985.4mb 35f
2:00pm 15 28 mph 985.4mb 35f
1:50pm 15 23 mph 985.4mb 35f
1:40pm 14 25 mph 985.1mb 36f
1:30pm 16 30 mph 984.8mb 36f
1:22pm 16 30 mph 984.4mb 37f
1:20pm 13 28 mph 984.8mb 37f
1:10pm 16 26 mph 984.4mb 37f
1:00pm 16 28 mph 984.1mb 37f
12:50pm 16 26 mph 984.1mb 37f
12:40pm 20 28 mph 983.7mb 37f
12:30pm 15 25 mph 983.7mb 38f
12:20pm 15 28 mph 983.7mb 38f
12:10pm 13 24 mph 983.4mb 39f
12:00pm 15 26 mph 983.4mb 39f
11:50am 15 26 mph 983.4mb 39f
11:40am 17 24 mph 982.7mb 39f
11:30am 13 23 mph 983.1mb 39f
11:20am 15 22 mph 983.1mb 40f
11:10am 15 22 mph 983.1mb 40f
11:00am 11 22 mph 983.1mb 40f
10:50am 13 20 mph 983.1mb 41f
10:40am 13 20 mph 982.7mb 42f
10:30am 11 20 mph 982.7mb 42f
10:20am 10 16 mph 982.7mb 41f
10:10am 11 16 mph 982.7mb 40f